PBO Station Position Time Series. Reference Frame : NAM14
Format Version,1.1.1
4-character ID,P083
Station name,NeedlePeakNV2007
Begin Date, 2007-04-13
End Date, 2023-06-26
Release Date, 2023-06-27
Reference position, 40.3205812243 North Latitude, -117.4676372551 East Longitude, 1642.68073 meters elevation,
Date, North (mm), East (mm), Vertical (mm), North Std. Deviation (mm), East Std. Deviation (mm),              Vertical Std. Deviation (mm), Quality,
2007-04-13,0.00, 0.00, 0.00, 2.01, 1.57, 6.98, repro,
2007-04-14,0.46, -0.96, 1.79, 2.05, 1.60, 7.09, repro,
2007-04-15,0.38, -1.40, -4.32, 2.02, 1.59, 7.05, repro,
2007-04-16,-0.55, -0.38, -0.38, 2.01, 1.58, 7.01, repro,
2007-04-17,1.30, -0.93, 2.77, 2.00, 1.58, 6.97, repro,
2007-04-18,2.25, -5.35, -0.09, 2.02, 1.58, 7.01, repro,
2007-04-19,1.59, -0.62, -1.78, 2.02, 1.60, 7.08, repro,
2007-04-20,0.30, 0.78, 4.94, 2.03, 1.58, 7.07, repro,
2007-04-21,0.23, -0.60, 1.72, 2.02, 1.58, 7.04, repro,
2007-04-22,-0.24, -2.46, -2.52, 2.01, 1.57, 7.00, repro,
2007-04-23,0.88, -0.14, -1.86, 2.04, 1.60, 7.05, repro,
2007-04-24,1.08, 0.68, -4.21, 2.06, 1.62, 7.20, repro,
2007-04-25,0.61, 0.12, 1.31, 2.05, 1.61, 7.14, repro,
2007-04-26,-0.25, 0.38, 1.48, 2.02, 1.57, 7.00, repro,
2007-04-27,0.67, 0.03, 0.07, 2.02, 1.57, 7.02, repro,
2007-04-28,-0.71, 0.78, -4.06, 2.03, 1.57, 7.04, repro,
2007-04-29,-0.37, -0.67, -5.02, 2.03, 1.57, 7.03, repro,
2007-04-30,0.42, -0.02, -6.77, 2.04, 1.57, 7.07, repro,
2007-05-01,0.63, 0.48, -0.47, 2.03, 1.57, 7.03, repro,
2007-05-02,-0.89, 1.56, 6.28, 2.09, 1.59, 7.26, repro,
2007-05-03,2.06, -1.70, -11.44, 2.15, 1.62, 7.38, repro,
2007-05-04,0.34, -1.10, 0.16, 2.02, 1.56, 7.01, repro,
2007-05-05,-2.26, 1.41, 10.39, 2.08, 1.61, 7.22, repro,
2007-05-06,-0.25, 0.30, -1.82, 2.05, 1.56, 7.05, repro,
2007-05-07,-0.91, 0.33, -0.11, 2.03, 1.57, 7.07, repro,
2007-05-08,-0.62, -0.43, -4.46, 2.03, 1.57, 7.03, repro,
2007-05-09,0.31, 1.07, -2.87, 2.03, 1.57, 7.02, repro,
2007-05-10,0.59, 0.28, -3.70, 2.16, 1.64, 7.52, repro,
2007-05-11,0.51, 1.06, -3.67, 2.14, 1.64, 7.43, repro,
2007-05-12,0.71, 1.11, 0.10, 2.03, 1.56, 7.01, repro,
2007-05-13,0.19, 0.39, 5.19, 2.08, 1.60, 7.15, repro,
2007-05-14,0.03, 0.26, -3.94, 2.07, 1.60, 7.15, repro,
2007-05-15,0.63, 1.02, -4.69, 2.06, 1.58, 7.08, repro,
2007-05-16,0.38, 0.80, -2.81, 2.05, 1.57, 7.05, repro,
2007-05-17,1.21, 0.11, 2.57, 2.06, 1.60, 7.12, repro,
2007-05-18,0.66, 0.04, -0.71, 2.11, 1.65, 7.31, repro,
2007-05-19,0.83, -0.96, -2.61, 2.08, 1.61, 7.13, repro,
2007-05-20,1.33, -1.52, -1.51, 2.12, 1.64, 7.26, repro,
2007-05-21,1.40, -3.37, -4.91, 2.10, 1.61, 7.19, repro,
2007-05-22,0.77, -1.35, 3.45, 2.07, 1.60, 7.10, repro,
2007-05-23,0.54, 0.65, 2.47, 2.10, 1.64, 7.23, repro,
2007-05-24,-0.43, -0.13, 2.33, 2.11, 1.64, 7.25, repro,
2007-05-25,-0.26, -0.12, 1.78, 2.09, 1.62, 7.17, repro,
2007-05-26,0.42, 0.09, -3.25, 2.10, 1.63, 7.23, repro,
2007-05-27,0.32, -1.45, 0.27, 2.08, 1.58, 7.05, repro,
2007-05-28,0.52, -1.19, 4.43, 2.06, 1.57, 7.00, repro,
2007-05-29,-0.01, 0.48, 2.67, 2.03, 1.57, 6.93, repro,
2007-05-30,0.22, 0.64, -0.85, 2.10, 1.59, 7.11, repro,
2007-05-31,-0.06, 0.97, 2.12, 2.10, 1.62, 7.21, repro,
2007-06-01,0.55, -0.34, -1.57, 2.08, 1.59, 7.12, repro,
2007-06-02,0.22, 0.63, 6.74, 2.04, 1.58, 7.02, repro,
2007-06-03,0.40, -0.62, 5.00, 2.04, 1.58, 7.00, repro,
2007-06-04,-0.23, 0.44, 4.39, 2.03, 1.59, 7.02, repro,
2007-06-05,0.23, 1.37, 1.27, 2.08, 1.59, 7.15, repro,
2007-06-06,1.61, -2.15, -1.17, 2.04, 1.57, 6.99, repro,
2007-06-07,0.75, -2.70, 1.48, 2.06, 1.58, 7.08, repro,
2007-06-08,0.34, -0.03, -0.23, 2.04, 1.57, 7.02, repro,
2007-06-09,0.35, 0.33, 3.83, 2.06, 1.62, 7.14, repro,
2007-06-10,0.90, 0.61, -2.97, 2.04, 1.59, 7.07, repro,
2007-06-11,-1.35, 1.43, 4.53, 2.07, 1.67, 7.23, repro,
2007-06-12,-0.01, 0.22, 3.37, 2.09, 1.67, 7.28, repro,
2007-06-13,0.71, -0.68, -2.04, 2.08, 1.62, 7.17, repro,
2007-06-14,0.64, 0.26, -0.43, 2.08, 1.64, 7.19, repro,
2007-06-15,1.79, -0.04, 3.25, 2.05, 1.60, 7.13, repro,
2007-06-16,-1.04, -2.00, 5.42, 2.03, 1.59, 7.02, repro,
2007-06-17,0.76, 2.68, -3.71, 2.02, 1.57, 6.96, repro,
2007-06-18,0.51, 1.38, 5.68, 2.04, 1.58, 7.03, repro,
2007-06-19,-0.65, 0.70, 0.44, 2.04, 1.59, 7.06, repro,
2007-06-20,0.38, 0.29, -2.62, 2.04, 1.58, 7.04, repro,
2007-06-21,0.48, 1.04, 0.53, 2.03, 1.58, 7.00, repro,
2007-06-22,0.76, 0.97, 1.85, 2.01, 1.58, 6.97, repro,
2007-06-23,-0.04, 1.50, -2.89, 2.03, 1.57, 6.98, repro,
2007-06-24,1.52, 0.90, -5.58, 2.07, 1.61, 7.27, repro,
2007-06-25,1.90, 1.05, -7.84, 2.06, 1.58, 7.11, repro,
2007-06-26,0.18, 2.20, -8.72, 2.05, 1.58, 7.08, repro,
2007-06-27,1.14, 0.98, -1.76, 2.04, 1.59, 7.09, repro,
2007-06-28,0.22, 0.82, -0.93, 2.02, 1.57, 7.02, repro,
2007-06-29,1.18, -0.04, -8.86, 2.04, 1.57, 7.05, repro,
2007-06-30,0.10, 1.18, 2.50, 2.04, 1.58, 7.06, repro,
2007-07-01,0.61, 0.78, 0.66, 2.05, 1.58, 7.08, repro,
2007-07-02,-0.11, 0.14, 2.53, 2.04, 1.59, 7.13, repro,
2007-07-03,0.29, 1.12, -4.21, 2.03, 1.59, 7.10, repro,
2007-07-04,0.13, 1.31, 3.06, 2.03, 1.57, 7.02, repro,
2007-07-05,-0.78, 2.07, 1.67, 2.04, 1.58, 7.09, repro,
2007-07-06,0.27, 1.47, 1.33, 2.05, 1.59, 7.09, repro,
2007-07-07,-0.73, 2.11, -0.92, 2.04, 1.59, 7.07, repro,
2007-07-08,-0.76, 2.85, 2.45, 2.04, 1.59, 7.08, repro,
2007-07-09,1.18, 0.98, 3.00, 2.04, 1.58, 7.07, repro,
2007-07-10,-1.17, 3.03, 3.23, 2.05, 1.63, 7.20, repro,
2007-07-11,-0.34, 1.94, -3.46, 2.04, 1.59, 7.03, repro,
2007-07-12,0.97, 3.19, -3.75, 2.08, 1.66, 7.28, repro,
2007-07-13,0.08, 0.72, -1.05, 2.09, 1.65, 7.28, repro,
2007-07-14,0.79, 1.56, -1.63, 2.06, 1.63, 7.17, repro,
2007-07-15,0.25, 0.59, 1.90, 2.06, 1.64, 7.22, repro,
2007-07-16,0.02, 0.93, 4.20, 2.04, 1.58, 7.02, repro,
2007-07-17,-0.31, 2.10, 6.39, 2.04, 1.60, 7.09, repro,
2007-07-18,1.40, -0.12, 0.55, 2.03, 1.59, 7.05, repro,
2007-07-19,-0.65, 1.41, 3.82, 2.10, 1.68, 7.44, repro,
2007-07-20,0.60, 0.56, 6.33, 2.08, 1.65, 7.29, repro,
2007-07-21,-0.09, 1.05, 6.09, 2.09, 1.65, 7.26, repro,
2007-07-22,0.92, 1.05, 1.95, 2.12, 1.67, 7.41, repro,
2007-07-23,0.35, 1.43, 3.02, 2.08, 1.64, 7.26, repro,
2007-07-24,-0.24, 2.46, 6.26, 2.08, 1.64, 7.23, repro,
2007-07-25,0.90, -2.75, 12.61, 2.13, 1.70, 7.44, repro,
2007-07-26,1.32, -1.64, 6.28, 2.06, 1.61, 7.20, repro,
2007-07-27,-2.47, 1.70, 1.29, 2.12, 1.67, 7.44, repro,
2007-07-28,-0.58, 2.08, 6.95, 2.07, 1.66, 7.28, repro,
2007-07-29,0.27, 0.28, 7.76, 2.08, 1.67, 7.31, repro,
2007-07-30,1.17, 1.10, 6.61, 2.04, 1.59, 7.07, repro,
2007-07-31,-1.11, 2.18, 7.54, 2.12, 1.61, 7.35, repro,
2007-08-01,1.33, 0.75, 13.35, 2.05, 1.59, 7.14, repro,
2007-08-02,0.33, 2.72, 3.67, 2.03, 1.59, 7.05, repro,
2007-08-03,1.59, 1.02, 5.45, 2.10, 1.70, 7.51, repro,
2007-08-04,-0.62, 1.68, 13.10, 2.03, 1.58, 6.99, repro,
2007-08-05,0.67, 1.81, 12.32, 2.04, 1.58, 7.01, repro,
2007-08-06,0.50, 0.48, 12.00, 2.07, 1.63, 7.25, repro,
2007-08-07,1.26, 0.17, 5.78, 2.07, 1.62, 7.23, repro,
2007-08-08,0.54, 1.54, 8.15, 2.02, 1.59, 7.04, repro,
2007-08-09,-0.16, 1.70, 8.51, 2.03, 1.58, 7.01, repro,
2007-08-10,0.08, 0.20, 8.04, 2.02, 1.57, 6.95, repro,
2007-08-11,0.20, 1.05, 7.89, 2.04, 1.57, 7.02, repro,
2007-08-12,1.06, 1.42, 9.01, 2.03, 1.58, 7.04, repro,
2007-08-13,-0.60, 0.56, 4.50, 2.02, 1.57, 6.97, repro,
2007-08-14,1.43, 0.25, 4.05, 2.15, 1.69, 7.45, repro,
2007-08-15,1.81, 0.97, 5.49, 2.15, 1.69, 7.45, repro,
2007-08-16,0.14, 0.80, 11.71, 2.12, 1.64, 7.36, repro,
2007-08-17,0.39, 0.66, 10.18, 2.13, 1.63, 7.35, repro,
2007-08-18,1.13, 1.07, 8.51, 2.16, 1.69, 7.68, repro,
2007-08-19,0.72, 1.13, 5.68, 2.21, 1.76, 7.88, repro,
2007-08-20,3.60, -3.54, -1.10, 2.11, 1.63, 7.31, repro,
2007-08-21,0.78, -0.15, 3.18, 2.10, 1.63, 7.31, repro,
2007-08-22,2.31, 0.38, 4.27, 2.22, 1.75, 7.83, repro,
2007-08-23,1.83, 0.29, 11.33, 2.08, 1.58, 7.10, repro,
2007-08-24,-0.00, 1.50, 10.20, 2.20, 1.67, 7.49, repro,
2007-08-25,1.08, 0.50, 5.83, 2.12, 1.66, 7.34, repro,
2007-08-26,1.59, 0.30, 15.26, 2.17, 1.71, 7.59, repro,
2007-08-27,1.32, 3.07, 1.81, 2.18, 1.71, 7.60, repro,
2007-08-28,2.12, -0.12, -0.66, 2.14, 1.67, 7.44, repro,
2007-08-29,0.49, 1.85, 2.91, 2.13, 1.66, 7.37, repro,
2007-08-30,1.08, -0.14, 4.55, 2.15, 1.68, 7.45, repro,
2007-08-31,-0.91, 1.08, 3.42, 2.16, 1.69, 7.55, repro,
2007-09-01,1.59, 0.59, -2.43, 2.38, 2.04, 8.72, repro,
2007-09-02,-0.70, -0.42, 10.65, 2.14, 1.67, 7.37, repro,
2007-09-03,0.63, 0.14, 1.88, 2.17, 1.71, 7.55, repro,
2007-09-04,0.08, 0.35, 10.13, 2.16, 1.67, 7.46, repro,
2007-09-05,-0.06, -0.53, 11.91, 2.15, 1.67, 7.45, repro,
2007-09-06,1.66, 0.26, 5.80, 2.12, 1.65, 7.32, repro,
2007-09-07,-0.08, -0.57, 8.15, 2.13, 1.66, 7.32, repro,
2007-09-08,1.03, -0.59, 6.54, 2.26, 1.81, 7.94, repro,
2007-09-09,1.11, 0.36, 4.50, 2.23, 1.77, 7.81, repro,
2007-09-10,-0.23, 1.01, 1.09, 2.15, 1.67, 7.40, repro,
2007-09-11,0.94, 0.74, 2.79, 2.19, 1.71, 7.59, repro,
2007-09-12,0.46, 0.89, 4.44, 2.17, 1.70, 7.51, repro,
2007-09-13,0.56, -0.20, 7.72, 2.26, 1.71, 7.67, repro,
2007-09-14,1.44, -0.27, 6.42, 2.19, 1.71, 7.60, repro,
2007-09-15,1.00, -0.34, 9.47, 2.21, 1.68, 7.57, repro,
2007-09-16,1.48, -0.54, 4.49, 2.16, 1.65, 7.38, repro,
2007-09-17,1.97, 0.13, 14.13, 2.23, 1.75, 7.74, repro,
2007-09-18,1.66, 0.53, 3.60, 2.14, 1.69, 7.45, repro,
2007-09-19,0.59, 1.53, 12.11, 2.05, 1.60, 7.11, repro,
2007-09-20,0.29, 1.09, 15.43, 2.09, 1.62, 7.11, repro,
2007-09-21,0.03, 0.14, 11.41, 2.15, 1.66, 7.44, repro,
2007-09-22,1.54, 0.01, 14.40, 2.10, 1.61, 7.20, repro,
2007-09-23,2.05, -2.46, 0.65, 2.14, 1.64, 7.33, repro,
2007-09-24,0.76, 1.22, 1.34, 2.23, 1.72, 7.69, repro,
2007-09-25,-0.43, 0.15, 4.55, 2.15, 1.68, 7.57, repro,
2007-09-26,0.59, -0.05, 4.38, 2.26, 1.71, 7.77, repro,
2007-09-27,-0.29, 0.47, 6.60, 2.11, 1.62, 7.24, repro,
2007-09-28,0.04, -1.22, 3.19, 2.19, 1.74, 7.59, repro,
2007-09-29,-0.19, 1.90, 11.13, 2.15, 1.69, 7.46, repro,
2007-09-30,0.23, -0.35, 8.33, 2.12, 1.69, 7.43, repro,
2007-10-01,0.43, 0.75, 4.87, 2.12, 1.68, 7.40, repro,
2007-10-02,0.75, -0.97, 8.74, 2.16, 1.73, 7.66, repro,
2007-10-03,5.66, -2.44, 13.63, 2.12, 1.66, 7.34, repro,
2007-10-04,1.15, 0.35, -0.20, 2.13, 1.67, 7.45, repro,
2007-10-05,-0.36, -2.11, 8.83, 2.16, 1.74, 7.70, repro,
2007-10-06,-1.17, 0.97, 11.09, 2.18, 1.71, 7.61, repro,
2007-10-07,1.31, 0.72, 4.47, 2.17, 1.70, 7.57, repro,
2007-10-08,-0.35, 0.05, 6.36, 2.35, 1.79, 8.20, repro,
2007-10-09,-0.33, 2.14, 5.79, 2.38, 1.92, 8.44, repro,
2007-10-10,0.25, 0.16, 1.13, 2.29, 1.73, 7.89, repro,
2007-10-11,0.43, 1.07, 8.00, 2.13, 1.70, 7.50, repro,
2007-10-12,1.25, 0.11, 6.91, 2.27, 1.87, 8.24, repro,
2007-10-13,0.13, 0.13, 12.08, 2.06, 1.63, 7.22, repro,
2007-10-14,-0.16, 0.48, 9.33, 2.05, 1.63, 7.18, repro,
2007-10-15,-0.09, -0.02, 6.56, 2.08, 1.64, 7.27, repro,
2007-10-16,1.03, -1.33, 9.71, 2.08, 1.64, 7.29, repro,
2007-10-17,1.29, 3.28, 10.10, 2.14, 1.71, 7.56, repro,
2007-10-18,0.01, -2.47, 9.85, 2.11, 1.68, 7.41, repro,
2007-10-19,8.39, 6.61, 5.03, 2.13, 1.69, 7.46, repro,
2007-10-20,-0.51, 0.58, 10.49, 2.12, 1.67, 7.42, repro,
2007-10-21,1.09, 0.24, -3.20, 2.23, 1.77, 7.79, repro,
2007-10-22,-0.37, 0.63, -1.34, 2.08, 1.63, 7.27, repro,
2007-10-23,-0.60, 1.49, -3.10, 2.16, 1.73, 7.64, repro,
2007-10-24,-0.43, 0.59, -2.96, 2.15, 1.73, 7.59, repro,
2007-10-25,-1.37, -0.88, -1.09, 2.12, 1.67, 7.42, repro,
2007-10-26,0.07, 1.53, 1.85, 2.10, 1.67, 7.34, repro,
2007-10-27,0.51, 0.71, -1.88, 2.12, 1.68, 7.47, repro,
2007-10-28,0.34, 0.80, -2.73, 2.08, 1.63, 7.28, repro,
2007-10-29,-1.14, 0.77, 1.74, 2.05, 1.62, 7.20, repro,
2007-10-30,-1.54, -2.52, -4.69, 2.09, 1.63, 7.26, repro,
2007-10-31,-0.58, 0.84, 0.66, 2.07, 1.63, 7.22, repro,
2007-11-01,0.82, 0.34, -2.57, 2.05, 1.60, 7.10, repro,
2007-11-02,0.39, 0.89, 0.50, 2.05, 1.60, 7.13, repro,
2007-11-03,-0.82, 0.85, -3.34, 2.04, 1.59, 7.06, repro,
2007-11-04,-0.43, 0.54, 1.22, 2.03, 1.58, 7.00, repro,
2007-11-05,-0.18, 0.96, -4.79, 2.06, 1.60, 7.06, repro,
2007-11-06,-0.25, 0.81, -3.52, 2.04, 1.61, 7.11, repro,
2007-11-07,0.62, 0.51, -3.78, 2.04, 1.61, 7.12, repro,
2007-11-08,0.09, -0.38, -2.92, 2.09, 1.63, 7.23, repro,
2007-11-09,0.31, -0.34, -3.11, 2.08, 1.63, 7.19, repro,
2007-11-10,0.03, -1.67, -0.96, 2.05, 1.59, 7.04, repro,
2007-11-11,-1.09, -0.87, 0.90, 2.03, 1.59, 7.04, repro,
2007-11-12,-0.09, 0.27, -1.04, 2.05, 1.60, 7.14, repro,
2007-11-13,1.22, -6.67, 5.67, 2.05, 1.60, 7.16, repro,
2007-11-14,-0.02, -0.29, -5.90, 2.07, 1.62, 7.22, repro,
2007-11-15,0.50, -1.93, -6.20, 2.06, 1.61, 7.11, repro,
2007-11-16,1.52, -2.69, 0.99, 2.07, 1.61, 7.17, repro,
2007-11-17,4.06, -1.23, -4.91, 2.06, 1.62, 7.24, repro,
2007-11-18,2.32, -1.08, 1.56, 2.04, 1.60, 7.11, repro,
2007-11-19,1.53, 0.30, 0.99, 2.04, 1.59, 7.07, repro,
2007-11-20,1.73, -1.36, -0.08, 2.12, 1.69, 7.29, repro,
2007-11-21,0.31, 0.07, -4.66, 2.11, 1.71, 7.42, repro,
2007-11-22,1.35, -0.06, -7.41, 2.09, 1.65, 7.22, repro,
2007-11-23,0.88, 0.30, -8.08, 2.14, 1.76, 7.52, repro,
2007-11-24,0.83, -0.13, -0.24, 2.12, 1.71, 7.36, repro,
2007-11-25,0.77, 0.05, 1.45, 2.20, 1.77, 7.55, repro,
2007-11-26,1.02, 0.41, -3.93, 2.17, 1.71, 7.49, repro,
2007-11-27,2.55, -2.49, 0.76, 2.12, 1.71, 7.38, repro,
2007-11-28,0.74, -0.75, -5.62, 2.15, 1.74, 7.53, repro,
2007-11-29,1.47, 1.04, -1.77, 2.12, 1.67, 7.40, repro,
2007-11-30,0.57, -0.21, 0.05, 2.23, 1.76, 7.68, repro,
2007-12-01,1.37, -1.31, 3.43, 2.24, 1.79, 7.81, repro,
2007-12-02,1.60, -3.93, -2.64, 2.22, 1.80, 7.85, repro,
2007-12-03,2.95, -0.20, -0.09, 2.33, 1.88, 8.39, repro,
2007-12-04,2.59, 2.59, -7.90, 2.23, 1.81, 7.89, repro,
2007-12-05,0.38, -2.03, -2.30, 2.41, 2.05, 8.70, repro,
2007-12-06,2.90, -2.87, -0.15, 2.33, 1.89, 8.33, repro,
2007-12-07,0.44, -0.69, 2.87, 2.40, 1.98, 8.49, repro,
2007-12-08,0.01, 0.83, 5.76, 2.17, 1.72, 7.57, repro,
2007-12-09,0.84, 0.56, -0.81, 2.54, 2.22, 9.22, repro,
2007-12-10,1.06, 0.47, -2.89, 2.17, 1.77, 7.56, repro,
2007-12-11,0.80, -1.01, -5.27, 2.22, 1.79, 7.85, repro,
2007-12-12,2.50, -1.53, -10.81, 2.27, 1.76, 7.84, repro,
2007-12-13,1.34, -0.08, -10.34, 2.21, 1.74, 7.56, repro,
2007-12-14,0.29, 0.33, -2.47, 2.11, 1.64, 7.31, repro,
2007-12-15,0.89, -2.88, 6.74, 2.11, 1.64, 7.31, repro,
2007-12-16,0.98, -0.91, -4.25, 2.16, 1.69, 7.42, repro,
2007-12-17,2.09, 0.66, 3.04, 2.16, 1.68, 7.41, repro,
2007-12-18,2.03, -0.08, 7.11, 2.13, 1.69, 7.43, repro,
2007-12-19,4.33, -0.58, 1.92, 2.18, 1.69, 7.56, repro,
2007-12-20,2.06, -0.49, 4.97, 2.09, 1.62, 7.22, repro,
2007-12-21,0.63, -0.95, 1.78, 2.23, 1.74, 7.69, repro,
2007-12-22,0.91, -0.37, -10.49, 2.23, 1.73, 7.80, repro,
2007-12-23,3.03, -3.18, -16.52, 2.18, 1.70, 7.52, repro,
2007-12-24,2.53, -3.36, -8.20, 2.14, 1.65, 7.33, repro,
2007-12-25,2.09, 0.40, -1.20, 2.19, 1.72, 7.49, repro,
2007-12-26,1.15, -0.74, 6.48, 2.13, 1.65, 7.33, repro,
2007-12-27,1.14, -0.21, 2.92, 2.18, 1.69, 7.56, repro,
2007-12-28,2.70, -6.43, -11.48, 2.17, 1.69, 7.54, repro,
2007-12-29,1.18, -4.26, -3.02, 2.13, 1.64, 7.30, repro,
2007-12-30,1.79, 5.87, -22.63, 2.19, 1.76, 7.61, repro,
2007-12-31,0.64, 0.91, -5.19, 2.11, 1.61, 7.20, repro,
2008-01-01,1.18, 0.51, -11.03, 2.12, 1.60, 7.23, repro,
2008-01-02,0.21, 0.58, -6.11, 2.11, 1.60, 7.19, repro,
2008-01-03,-0.03, 0.76, -0.16, 2.13, 1.64, 7.38, repro,
2008-01-04,0.99, 1.28, 7.97, 2.05, 1.56, 7.02, repro,
2008-01-05,1.29, -1.33, 8.03, 2.11, 1.61, 7.25, repro,
2008-01-06,4.09, -0.78, 2.13, 2.15, 1.67, 7.50, repro,
2008-01-07,0.77, -2.21, 5.21, 2.07, 1.57, 7.09, repro,
2008-01-08,1.01, -0.01, 2.79, 2.13, 1.59, 7.29, repro,
2008-01-09,-0.82, -1.80, -1.73, 2.13, 1.59, 7.28, repro,
2008-01-10,2.61, -5.91, -3.90, 2.11, 1.62, 7.24, repro,
2008-01-11,0.21, 0.11, -2.78, 2.10, 1.63, 7.22, repro,
2008-01-12,1.54, -3.70, -9.80, 2.05, 1.57, 7.02, repro,
2008-01-13,0.09, 1.09, -7.19, 2.08, 1.60, 7.18, repro,
2008-01-14,-0.27, -0.31, -2.72, 2.07, 1.60, 7.17, repro,
2008-01-15,0.08, -1.78, -6.21, 2.06, 1.58, 7.08, repro,
2008-01-16,-0.00, -0.17, -5.40, 2.11, 1.60, 7.23, repro,
2008-01-17,0.71, 0.39, -2.71, 2.10, 1.59, 7.16, repro,
2008-01-18,0.07, -0.12, -2.70, 2.07, 1.63, 7.25, repro,
2008-01-19,-0.21, 0.67, -6.93, 2.05, 1.59, 7.13, repro,
2008-01-20,1.57, 0.03, -4.81, 2.05, 1.59, 7.12, repro,
2008-01-21,-0.47, 0.29, -0.41, 2.05, 1.58, 7.05, repro,
2008-01-22,-0.24, 0.40, -3.87, 2.04, 1.58, 7.03, repro,
2008-01-23,0.13, 0.74, -4.18, 2.05, 1.59, 7.06, repro,
2008-01-24,0.12, 0.72, 2.19, 2.05, 1.60, 7.15, repro,
2008-01-25,0.82, 1.22, -0.68, 2.06, 1.59, 7.14, repro,
2008-01-26,1.11, 0.79, -1.91, 2.04, 1.58, 7.06, repro,
2008-01-27,0.66, 1.32, 1.86, 2.05, 1.59, 7.07, repro,
2008-01-28,2.20, -0.94, 4.55, 2.06, 1.59, 7.09, repro,
2008-01-29,2.50, -4.01, -1.67, 2.17, 1.70, 7.44, repro,
2008-01-30,2.21, -3.11, -3.48, 2.16, 1.67, 7.42, repro,
2008-01-31,2.52, 1.07, -6.21, 2.04, 1.58, 7.10, repro,
2008-02-01,1.01, -0.11, -11.09, 2.06, 1.58, 7.08, repro,
2008-02-02,1.29, -3.00, -9.78, 2.05, 1.59, 7.11, repro,
2008-02-03,-0.09, 1.50, 0.63, 2.04, 1.58, 7.07, repro,
2008-02-04,0.59, 1.29, -2.23, 2.04, 1.57, 7.03, repro,
2008-02-05,0.13, 0.19, -2.57, 2.07, 1.64, 7.26, repro,
2008-02-06,1.57, -0.28, -8.48, 2.09, 1.64, 7.31, repro,
2008-02-07,2.32, 0.30, -4.66, 2.07, 1.61, 7.21, repro,
2008-02-08,-0.38, -1.74, -5.09, 2.06, 1.59, 7.13, repro,
2008-02-09,-0.93, 2.66, -0.09, 2.04, 1.58, 7.08, repro,
2008-02-10,-0.58, -1.88, -7.18, 2.03, 1.57, 7.03, repro,
2008-02-11,-0.34, -0.07, -1.70, 2.04, 1.58, 7.08, repro,
2008-02-12,0.88, 1.04, -6.37, 2.05, 1.58, 7.06, repro,
2008-02-13,1.95, -1.06, -1.11, 2.04, 1.58, 7.05, repro,
2008-02-14,1.91, -0.45, -2.40, 2.04, 1.59, 7.06, repro,
2008-02-15,0.62, 0.61, -3.32, 2.09, 1.63, 7.23, repro,
2008-02-16,-0.23, -0.28, -0.99, 2.04, 1.60, 7.11, repro,
2008-02-17,-0.12, 1.36, -3.55, 2.05, 1.59, 7.06, repro,
2008-02-18,-0.28, 0.61, -2.10, 2.06, 1.59, 7.11, repro,
2008-02-19,0.17, 0.66, -0.67, 2.05, 1.59, 7.07, repro,
2008-02-20,-0.57, -0.13, 0.29, 2.04, 1.58, 7.04, repro,
2008-02-21,-0.53, 0.49, 6.40, 2.05, 1.60, 7.14, repro,
2008-02-22,1.12, -1.29, -0.83, 2.05, 1.59, 7.06, repro,
2008-02-23,-0.12, 1.24, 2.24, 2.09, 1.63, 7.25, repro,
2008-02-24,1.05, 2.53, -0.01, 2.05, 1.59, 7.12, repro,
2008-02-25,1.33, -2.88, -2.32, 2.06, 1.59, 7.12, repro,
2008-02-26,0.47, 0.08, -9.47, 2.04, 1.57, 7.01, repro,
2008-02-27,1.06, 0.75, -9.76, 2.11, 1.62, 7.30, repro,
2008-02-28,0.73, -0.22, -7.39, 2.12, 1.67, 7.43, repro,
2008-02-29,1.05, 0.17, -9.06, 2.10, 1.63, 7.32, repro,
2008-03-01,-0.62, -0.21, -4.05, 2.06, 1.59, 7.16, repro,
2008-03-02,1.86, -1.29, -4.91, 2.13, 1.67, 7.49, repro,
2008-03-03,-0.34, -0.78, -3.60, 2.05, 1.59, 7.10, repro,
2008-03-04,3.43, -3.20, -15.69, 2.05, 1.59, 7.10, repro,
2008-03-05,0.47, 0.41, -3.77, 2.13, 1.69, 7.45, repro,
2008-03-06,0.00, 0.08, -7.01, 2.08, 1.63, 7.31, repro,
2008-03-07,1.29, 0.12, -6.27, 2.03, 1.57, 6.99, repro,
2008-03-08,-0.75, -0.00, 0.68, 2.09, 1.64, 7.36, repro,
2008-03-09,-0.08, 0.07, -1.55, 2.09, 1.62, 7.27, repro,
2008-03-10,0.70, 0.20, -6.48, 2.05, 1.58, 7.06, repro,
2008-03-11,1.48, -1.99, -6.40, 2.06, 1.58, 7.12, repro,
2008-03-12,0.28, -3.09, -4.37, 2.07, 1.62, 7.28, repro,
2008-03-13,-1.78, -0.87, 10.01, 2.09, 1.63, 7.33, repro,
2008-03-14,1.29, -2.68, 1.74, 2.10, 1.63, 7.36, repro,
2008-03-15,1.67, -1.39, -7.99, 2.06, 1.58, 7.06, repro,
2008-03-16,-0.54, -0.63, -0.22, 2.12, 1.66, 7.49, repro,
2008-03-17,0.73, -0.61, -2.54, 2.18, 1.75, 7.81, repro,
2008-03-18,1.21, 0.66, -5.04, 2.09, 1.66, 7.33, repro,
2008-03-19,1.25, -3.86, -4.85, 2.14, 1.67, 7.51, repro,
2008-03-20,2.01, -0.47, -9.37, 2.10, 1.62, 7.26, repro,
2008-03-21,1.72, -0.27, -14.72, 2.12, 1.65, 7.42, repro,
2008-03-22,0.55, -0.22, -8.46, 2.11, 1.66, 7.42, repro,
2008-03-23,0.39, -1.37, -7.56, 2.11, 1.67, 7.35, repro,
2008-03-24,1.86, 0.21, -5.36, 2.08, 1.61, 7.18, repro,
2008-03-25,4.93, 2.61, -3.47, 2.16, 1.68, 7.48, repro,
2008-03-26,-1.60, 2.96, 5.78, 2.14, 1.66, 7.37, repro,
2008-03-27,1.29, 3.43, -10.48, 2.13, 1.67, 7.45, repro,
2008-03-28,1.14, -1.27, 0.76, 2.09, 1.62, 7.19, repro,
2008-03-29,0.62, 0.86, 2.62, 2.08, 1.60, 7.17, repro,
2008-03-30,1.16, -1.87, -2.86, 2.07, 1.58, 7.11, repro,
2008-03-31,1.43, -1.17, -7.23, 2.10, 1.60, 7.23, repro,
2008-04-01,0.93, 0.04, 0.99, 2.08, 1.59, 7.18, repro,
2008-04-02,0.46, -0.61, -4.81, 2.11, 1.59, 7.24, repro,
2008-04-03,0.84, 0.12, 2.05, 2.06, 1.58, 7.11, repro,
2008-04-04,2.13, -1.23, -5.74, 2.09, 1.63, 7.23, repro,
2008-04-05,0.88, -3.91, 3.35, 2.09, 1.59, 7.23, repro,
2008-04-06,2.64, 0.78, -3.97, 2.09, 1.58, 7.16, repro,
2008-04-07,1.85, -4.51, -3.30, 2.07, 1.58, 7.13, repro,
2008-04-08,0.51, -1.61, -0.51, 2.06, 1.58, 7.13, repro,
2008-04-09,1.43, -1.06, -12.35, 2.10, 1.58, 7.20, repro,
2008-04-10,5.14, -4.55, -3.01, 2.07, 1.57, 7.08, repro,
2008-04-11,0.26, -0.54, -4.79, 2.08, 1.58, 7.16, repro,
2008-04-12,0.31, -0.15, -7.77, 2.08, 1.58, 7.17, repro,
2008-04-13,0.65, -0.26, -5.86, 2.10, 1.65, 7.32, repro,
2008-04-14,1.61, -1.56, -0.71, 2.08, 1.59, 7.23, repro,
2008-04-15,1.53, -3.87, -4.03, 2.12, 1.63, 7.28, repro,
2008-04-16,-0.12, 0.11, 1.17, 2.11, 1.64, 7.29, repro,
2008-04-17,0.80, -1.12, -2.88, 2.07, 1.58, 7.14, repro,
2008-04-18,2.78, -0.65, -5.63, 2.07, 1.58, 7.16, repro,
2008-04-19,2.53, -1.91, 1.73, 2.08, 1.59, 7.22, repro,
2008-04-20,-0.07, -0.73, -13.52, 2.13, 1.60, 7.31, repro,
2008-04-21,1.07, 0.08, -1.53, 2.09, 1.58, 7.18, repro,
2008-04-22,0.11, -1.21, 0.56, 2.09, 1.59, 7.19, repro,
2008-04-23,5.12, 1.36, -7.32, 2.13, 1.63, 7.35, repro,
2008-04-24,-0.49, -3.55, -2.70, 2.10, 1.62, 7.33, repro,
2008-04-25,1.53, -2.59, -13.01, 2.11, 1.59, 7.26, repro,
2008-04-26,3.13, -4.42, -8.28, 2.21, 1.61, 7.42, repro,
2008-04-27,0.31, 0.06, -7.47, 2.19, 1.61, 7.38, repro,
2008-04-28,0.51, -1.89, -6.28, 2.16, 1.60, 7.28, repro,
2008-04-29,2.27, 1.41, 1.07, 2.22, 1.61, 7.42, repro,
2008-04-30,3.65, -5.39, -4.22, 2.15, 1.61, 7.35, repro,
2008-05-01,3.18, -2.86, -8.26, 2.19, 1.62, 7.43, repro,
2008-05-02,0.49, -0.25, 2.80, 2.18, 1.65, 7.47, repro,
2008-05-03,-0.09, -1.40, 1.32, 2.16, 1.61, 7.33, repro,
2008-05-04,1.20, -0.13, 2.37, 2.07, 1.55, 7.04, repro,
2008-05-05,0.01, -0.22, 1.50, 2.13, 1.60, 7.23, repro,
2008-05-06,1.43, -2.25, -5.62, 2.14, 1.61, 7.31, repro,
2008-05-07,0.74, -2.43, -12.87, 2.15, 1.59, 7.25, repro,
2008-05-08,0.68, -0.54, 2.19, 2.18, 1.65, 7.33, repro,
2008-05-09,2.41, -2.67, 0.35, 2.14, 1.60, 7.26, repro,
2008-05-10,0.38, 1.18, 0.83, 2.09, 1.56, 7.07, repro,
2008-05-11,2.50, -1.25, 2.22, 2.14, 1.59, 7.25, repro,
2008-05-12,1.42, -0.69, 4.50, 2.13, 1.57, 7.18, repro,
2008-05-13,1.06, 0.22, 2.26, 2.11, 1.55, 7.07, repro,
2008-05-14,1.75, 1.52, -2.13, 2.11, 1.56, 7.09, repro,
2008-05-15,-0.85, 0.21, -4.21, 2.11, 1.57, 7.16, repro,
2008-05-16,0.26, -0.84, -4.63, 2.09, 1.55, 7.07, repro,
2008-05-17,1.08, 0.75, 5.53, 2.15, 1.59, 7.25, repro,
2008-05-18,0.18, -1.01, 0.23, 2.16, 1.59, 7.27, repro,
2008-05-19,1.05, 1.05, -4.77, 2.09, 1.56, 7.10, repro,
2008-05-20,0.65, 0.40, 3.91, 2.11, 1.58, 7.25, repro,
2008-05-21,-2.33, -0.17, 13.90, 2.12, 1.62, 7.36, repro,
2008-05-22,1.65, -1.66, 1.76, 2.10, 1.60, 7.24, repro,
2008-05-23,0.98, -0.14, 7.18, 2.11, 1.59, 7.24, repro,
2008-05-24,-0.12, 0.18, -2.13, 2.12, 1.61, 7.30, repro,
2008-05-25,0.00, -0.02, 3.62, 2.10, 1.56, 7.17, repro,
2008-05-26,-0.62, 0.70, 3.11, 2.14, 1.65, 7.42, repro,
2008-05-27,-1.48, 0.50, -1.81, 2.09, 1.57, 7.17, repro,
2008-05-28,0.45, -1.60, -3.36, 2.09, 1.56, 7.14, repro,
2008-05-29,1.62, -2.16, -5.39, 2.14, 1.60, 7.25, repro,
2008-05-30,0.39, 0.93, 0.77, 2.10, 1.57, 7.19, repro,
2008-05-31,0.34, 0.55, 1.66, 2.09, 1.58, 7.21, repro,
2008-06-01,0.98, -1.70, 0.81, 2.10, 1.58, 7.22, repro,
2008-06-02,0.90, -0.85, -3.66, 2.08, 1.56, 7.13, repro,
2008-06-03,0.77, 3.53, -1.85, 2.17, 1.63, 7.42, repro,
2008-06-04,2.35, -3.41, -1.29, 2.09, 1.58, 7.20, repro,
2008-06-05,0.15, -0.32, 5.76, 2.09, 1.57, 7.16, repro,
2008-06-06,1.89, -2.01, 6.10, 2.12, 1.62, 7.31, repro,
2008-06-07,0.23, 0.46, 5.43, 2.15, 1.66, 7.41, repro,
2008-06-08,0.18, -0.07, 2.54, 2.13, 1.62, 7.25, repro,
2008-06-09,0.29, -2.52, 1.93, 2.14, 1.61, 7.29, repro,
2008-06-10,6.96, 2.13, -13.16, 2.12, 1.60, 7.35, repro,